Miscellaneous Local Product
Issued by NWS North Platte, NE

Home | Current Version | Previous Version | Graphics & Text | Print | Product List | Glossary On
Versions: 1 2 3 4 5 6 7 8 9 10 11 12 13 14 15 16 17 18 19 20 21 22 23 24 25 26 27 28 29 30 31 32 33 34 35 36 37 38 39 40 41 42 43 44 45 46 47 48 49 50
740
AXUS43 KLBF 280210
MISLBF


WESTERN AND NORTH CENTRAL NEBRASKA HOURLY WEATHER ROUNDUP
NATIONAL WEATHER SERVICE NORTH PLATTE NE
900 PM CDT WED JUL 27 2016

NOTE: "FAIR" INDICATES FEW OR NO CLOUDS BELOW 12,000 FEET WITH NO
SIGNIFICANT WEATHER AND/OR OBSTRUCTIONS TO VISIBILITY.

NOTE: STATIONS NOT REPORTING VARIABLES SUCH AS SKY/WEATHER OR
PRESSURE ARE PROVIDED BY RAWS AND APRS NETWORKS AND ARE NOT UNDER
NATIONAL WEATHER SERVICE QUALITY CONTROL.

...OBSERVATIONS IN AND NEAR THE EASTERN PANHANDLE OF NEBRASKA...

CITY           SKY/WX    TMP DP  RH WIND       PRES   REMARKS
PINE RIDGE     CLOUDY    73  62  68 E12       30.12R
CHADRON        MOCLDY    76  56  49 NE9       30.11R
ALLIANCE       CLEAR     74  58  57 E13       30.12R
SIDNEY         CLOUDY    67  62  84 S24G36    30.16S THUNDER
CRESCENT LAKE    N/A     76  61  59 E12         N/A
$$

...OBSERVATIONS IN NORTHERN NEBRASKA AND FAR SOUTHERN SOUTH DAKOTA...

CITY           SKY/WX    TMP DP  RH WIND       PRES   REMARKS
WINNER         RAIN      65  61  87 N9        30.12R FOG
VALENTINE      CLOUDY    68  59  73 MISG      30.12R
THEDFORD       PTCLDY    70  59  68 E5        30.12R
AINSWORTH      MOCLDY    68  66  92 N8G17     30.12R
O`NEILL        LGT RAIN  68  63  85 NW16      30.07R
ORD            MOCLDY    71  63  75 NE3       30.02F
BROKEN BOW     PTCLDY    69  65  86 N6        30.06R
VALENTINE NWR    N/A     73  61  65 NE5G13      N/A
BUTTE            N/A     71  66  85 W6          N/A
HALSEY           N/A     74  56  53 E5G13       N/A
EWING            N/A     64  62  95 CALM        N/A
$$

...OBSERVATIONS IN SOUTHWEST NEBRASKA AND FAR NORTHEAST COLORADO...

CITY           SKY/WX    TMP DP  RH WIND       PRES   REMARKS
WRAY           FAIR      82  61  47 NE8       30.09R
HOLYOKE        FAIR      79  61  53 E8        30.12R
IMPERIAL       PTCLDY    78  59  51 NE9       30.09R
OGALLALA       PTCLDY    79  61  53 E3        30.11R
NORTH PLATTE   CLOUDY    74  61  63 NE8       30.09R
MCCOOK         CLOUDY    79  65  62 E9        30.05R
LEXINGTON      CLEAR     78  69  74 SE5       30.05S
STAPLETON        N/A     70  62  76 CALM        N/A
GOTHENBURG       N/A     81  68  64 E3          N/A
CALLAWAY         N/A     71  64  80 E6          N/A
$$

...OBSERVATIONS IN CENTRAL LINCOLN COUNTY AREA...

CITY           SKY/WX    TMP DP  RH WIND       PRES   REMARKS
N.P. AIRPORT   CLOUDY    74  61  63 NE8       30.09R
N.P. DOWNTOWN    N/A     75  62  64 E7          N/A
N.P. SOUTHEAST   N/A     75  62  63 CALM        N/A
N.P. HILLCREST   N/A     73  61  67 E12         N/A
$$

...SOME OBSERVATIONS FROM AROUND THE REGION...

CITY           SKY/WX    TMP DP  RH WIND       PRES   REMARKS
DENVER         MOCLDY    80  60  50 E23       30.13S
LARAMIE        CLEAR     75  49  39 E17       30.28R
CHEYENNE       CLEAR     72  58  61 E5        30.22R
SCOTTSBLUFF    CLEAR     78  55  44 E8        30.11R
RAPID CITY     CLEAR     72  58  61 E7        30.13R
BISMARCK       MOCLDY    72  60  66 E7        30.11R
PIERRE         CLOUDY    71  62  73 E7        30.03F
SIOUX FALLS    CLOUDY    72  64  76 N8        30.03R
OMAHA          CLOUDY    77  71  82 NW6       29.95R
GRAND ISLAND   CLEAR     77  68  73 E5        30.02S
KANSAS CITY    PTCLDY    81  71  71 NW3       29.93R
WICHITA        PTCLDY    86  70  58 E8        29.94R HX  90
OKLAHOMA CITY  CLOUDY    77  72  84 CALM      29.93R
DALLAS         CLOUDY    87  71  58 S8        29.91R HX  93
AMARILLO       CLEAR     74  60  61 E24G31    30.11R
DODGE CITY     PTCLDY    76  71  85 SE6       29.99R
HAYS           CLEAR     84  64  51 E5        29.99R
GOODLAND       CLEAR     77  64  64 E7        30.06R
$$




USA.gov is the U.S. government's official web portal to all federal, state and local government web resources and services.